TimeEST,TemperatureF,Dew PointF,Humidity,Sea Level PressureIn,VisibilityMPH,Wind Direction,Wind SpeedMPH,Gust SpeedMPH,PrecipitationIn,Events,Conditions,WindDirDegrees,DateUTC
12:52 AM,19.0,6.1,57,29.96,9.0,WNW,15.0,26.5,N/A,,Overcast,300,2013-02-17 05:52:00
1:52 AM,18.0,7.0,62,29.97,10.0,NW,12.7,18.4,0.00,Snow,Light Snow,320,2013-02-17 06:52:00
2:52 AM,16.0,6.1,65,29.97,10.0,WNW,15.0,25.3,0.00,,Overcast,300,2013-02-17 07:52:00
3:36 AM,15.8,8.6,73,29.88,2.0,NW,6.9,23.0,0.00,Snow,Light Snow,310,2013-02-17 08:36:00
3:47 AM,15.8,10.4,79,29.88,1.0,WNW,17.3,31.1,0.00,Snow,Light Snow,300,2013-02-17 08:47:00
3:52 AM,15.1,9.0,77,29.98,1.0,NW,18.4,31.1,0.00,Snow,Light Snow,310,2013-02-17 08:52:00
4:06 AM,15.8,8.6,73,29.89,0.8,WNW,16.1,24.2,0.00,Snow,Light Snow,300,2013-02-17 09:06:00
4:36 AM,14.0,5.0,67,29.89,1.2,WNW,17.3,34.5,0.00,Snow,Light Snow,300,2013-02-17 09:36:00
4:42 AM,14.0,3.2,62,29.90,2.5,WNW,20.7,29.9,0.00,Snow,Light Snow,300,2013-02-17 09:42:00
4:44 AM,14.0,3.2,62,29.90,3.0,WNW,18.4,29.9,0.00,Snow,Light Snow,300,2013-02-17 09:44:00
4:52 AM,14.0,1.9,59,30.00,5.0,NW,15.0,29.9,0.00,,Scattered Clouds,310,2013-02-17 09:52:00
5:52 AM,12.9,1.9,62,30.03,9.0,WNW,15.0,26.5,0.00,,Overcast,300,2013-02-17 10:52:00
6:52 AM,12.9,1.9,62,30.04,10.0,NW,11.5,17.3,0.00,,Overcast,310,2013-02-17 11:52:00
7:52 AM,12.0,1.9,64,30.07,10.0,NW,12.7,23.0,N/A,,Overcast,310,2013-02-17 12:52:00
8:20 AM,12.2,3.2,67,29.97,4.0,WNW,12.7,20.7,0.00,Snow,Light Snow,300,2013-02-17 13:20:00
8:52 AM,12.9,5.0,71,30.09,7.0,WNW,11.5,18.4,0.00,Snow,Light Snow,300,2013-02-17 13:52:00
9:52 AM,15.1,5.0,64,30.10,5.0,WNW,13.8,29.9,0.00,Snow,Light Snow,300,2013-02-17 14:52:00
10:15 AM,15.8,5.0,62,30.00,3.0,WNW,17.3,29.9,0.00,Snow,Light Snow,300,2013-02-17 15:15:00
10:29 AM,15.8,5.0,62,30.01,2.0,NW,13.8,23.0,0.00,Snow,Light Snow,310,2013-02-17 15:29:00
10:52 AM,16.0,7.0,68,30.13,2.0,NW,9.2,19.6,0.00,Snow,Light Snow,310,2013-02-17 15:52:00
10:59 AM,15.8,6.8,68,30.02,1.0,NW,15.0,23.0,0.00,Snow,Light Snow,310,2013-02-17 15:59:00
11:05 AM,15.8,8.6,73,30.02,0.8,WNW,13.8,23.0,0.00,Snow,Light Snow,300,2013-02-17 16:05:00
11:31 AM,17.6,8.6,68,30.03,1.0,WNW,10.4,24.2,0.00,Snow,Light Snow,300,2013-02-17 16:31:00
11:47 AM,17.6,8.6,68,30.03,1.8,NW,15.0,25.3,0.00,Snow,Light Snow,310,2013-02-17 16:47:00
11:52 AM,18.0,8.1,65,30.13,3.0,WNW,15.0,25.3,0.00,Snow,Light Snow,300,2013-02-17 16:52:00
12:52 PM,18.0,7.0,62,30.13,6.0,NW,15.0,23.0,0.00,Snow,Light Snow,310,2013-02-17 17:52:00
1:20 PM,19.4,5.0,54,30.02,9.0,West,17.3,29.9,0.00,,Overcast,280,2013-02-17 18:20:00
1:52 PM,21.0,6.1,53,30.12,10.0,WNW,12.7,19.6,0.00,,Overcast,290,2013-02-17 18:52:00
2:52 PM,23.0,6.1,48,30.12,10.0,WNW,16.1,25.3,N/A,,Mostly Cloudy,300,2013-02-17 19:52:00
3:52 PM,23.0,3.9,44,30.13,10.0,NW,16.1,25.3,N/A,,Clear,310,2013-02-17 20:52:00
4:52 PM,23.0,3.0,42,30.14,10.0,WNW,16.1,24.2,N/A,,Clear,290,2013-02-17 21:52:00
6:52 PM,21.9,1.9,42,30.19,10.0,WNW,9.2,-,N/A,,Clear,300,2013-02-17 23:52:00
7:52 PM,21.0,1.9,44,30.21,10.0,WNW,9.2,-,N/A,,Clear,290,2013-02-18 00:52:00
8:52 PM,19.9,1.9,46,30.22,10.0,WNW,6.9,-,N/A,,Clear,300,2013-02-18 01:52:00
9:52 PM,19.0,1.9,47,30.24,10.0,West,5.8,-,N/A,,Clear,280,2013-02-18 02:52:00
10:52 PM,19.0,1.9,47,30.24,10.0,West,5.8,-,N/A,,Clear,280,2013-02-18 03:52:00